Location: Amsterdam
(30.7274°N, 84.4357°W)
Time: 15:59:17
(UTC+00:00)

Injun/Solrad 3 - Pass Details

Date: 20 February 2026
Orbit: 871 x 985 km, 66.8° (Epoch: 11 March)

Event Time Altitude Azimuth Distance (km) Brightness Sun altitude
Rises 16:29:04 0° 226° (SW) 3,445 11.0 44.1°
Reaches altitude 10° 16:31:43 10° 235° (SW) 2,511 10.4 44.3°
Maximum altitude 16:37:00 36° 301° (WNW) 1,352 8.8 44.8°
Drops below altitude 10° 16:42:24 10° 7° (N) 2,550 9.9 45.3°
Sets 16:45:08 0° 16° (NNE) 3,507 10.6 45.6°
